Lawton, OK

2:14 PM CDT on March 29, 2017 (GMT -0500)
Lawton-Fort Sill Regional

Weather History for KLAW - January, 2014

Change the Weather History Date:

Monday, January 20, 2014

  Actual Average Record
Temperature  
Mean Temperature 47 °F -  
Max Temperature 73 °F 52 °F 74 °F (1969)
Min Temperature 21 °F 25 °F 4 °F (1984)
Degree Days  
Heating Degree Days 18    
Moisture  
Dew Point 22 °F    
Average Humidity 47    
Maximum Humidity 85    
Minimum Humidity 13    
Precipitation  
Precipitation 0.00 in - - ()
Sea Level Pressure  
Sea Level Pressure 30.01 in    
Wind  
Wind Speed 7 mph (North)    
Max Wind Speed 32 mph    
Max Gust Speed 43 mph    
Visibility 10 miles    
Events      
Averages and records for this station are not official NWS values.
T = Trace of Precipitation, MM = Missing Value Source: NWS Daily Summary

Daily Weather History Graph

Daily Weather History Graph

Search for Another Location

Airport or City:

Trip Planner

Search our weather history database for the weather conditions in past years. The results will help you decide how hot, cold, wet, or windy it might be!

Date:

Astronomy

Jan. 20, 2014 Rise Set
Actual Time 7:38 AM CST 5:51 PM CST
Civil Twilight 7:11 AM CST 6:18 PM CST
Nautical Twilight 6:40 AM CST 6:49 PM CST
Astronomical Twilight 6:10 AM CST 7:19 PM CST
Moon 10:14 PM CST (1/20) 9:51 AM CST (1/20)
Length of Visible Light 11h 06m
Length of Day
10h 12m
Waning Gibbous, 82% of the Moon is Illuminated
Jan 20
Waning Gibbous
Jan 23
Last Quarter
Jan 30
New
Feb 6
First Quarter
Feb 14
Full

Hourly Weather History & Observations

Time (CST) Temp. Windchill Dew Point Humidity Pressure Visibility Wind Dir Wind Speed Gust Speed Precip Events Conditions
12:53 AM 30.0 °F - 21.0 °F 69% 29.94 in 10.0 mi Calm Calm - N/A   Clear
1:53 AM 28.9 °F - 21.0 °F 72% 29.89 in 10.0 mi Calm Calm - N/A   Clear
2:53 AM 30.0 °F 25.2 °F 23.0 °F 75% 29.88 in 10.0 mi North 4.6 mph - N/A   Clear
3:53 AM 28.9 °F - 21.9 °F 75% 29.88 in 10.0 mi Calm Calm - N/A   Clear
4:53 AM 28.0 °F 22.8 °F 21.0 °F 75% 29.86 in 10.0 mi East 4.6 mph - N/A   Clear
5:53 AM 24.1 °F 19.7 °F 19.0 °F 81% 29.87 in 10.0 mi NNW 3.5 mph - N/A   Clear
6:53 AM 23.0 °F - 19.0 °F 85% 29.88 in 10.0 mi Calm Calm - N/A   Clear
7:53 AM 21.9 °F - 18.0 °F 85% 29.90 in 10.0 mi Calm Calm - N/A   Clear
8:53 AM 34.0 °F - 25.0 °F 70% 29.90 in 10.0 mi Calm Calm - N/A   Clear
9:53 AM 46.9 °F - 27.0 °F 46% 29.91 in 10.0 mi NNE 3.5 mph - N/A   Clear
10:53 AM 57.9 °F - 23.0 °F 26% 29.93 in 10.0 mi North 10.4 mph - N/A   Clear
11:53 AM 63.0 °F - 24.1 °F 23% 29.93 in 10.0 mi NNE 16.1 mph - N/A   Clear
12:53 PM 70.0 °F - 25.0 °F 18% 29.91 in 10.0 mi North 10.4 mph - N/A   Clear
1:53 PM 73.9 °F - 19.9 °F 13% 29.90 in 10.0 mi North 20.7 mph 26.5 mph N/A   Clear
2:53 PM 72.0 °F - 19.9 °F 14% 29.93 in 10.0 mi North 29.9 mph 36.8 mph N/A   Clear
3:53 PM 64.0 °F - 24.1 °F 22% 30.00 in 10.0 mi North 32.2 mph 42.6 mph N/A   Clear
4:53 PM 63.0 °F - 21.9 °F 21% 30.05 in 10.0 mi North 27.6 mph 40.3 mph N/A   Clear
5:53 PM 57.9 °F - 21.0 °F 24% 30.12 in 10.0 mi North 18.4 mph 29.9 mph N/A   Clear
6:53 PM 55.0 °F - 19.9 °F 25% 30.19 in 10.0 mi North 15.0 mph 23.0 mph N/A   Clear
7:53 PM 51.1 °F - 21.0 °F 31% 30.24 in 10.0 mi North 10.4 mph - N/A   Clear
8:53 PM 48.9 °F - 21.9 °F 35% 30.26 in 10.0 mi North 10.4 mph - N/A   Clear
9:53 PM 45.0 °F 41.8 °F 21.9 °F 40% 30.29 in 10.0 mi NW 5.8 mph - N/A   Clear
10:53 PM 42.1 °F 37.7 °F 21.9 °F 45% 30.30 in 10.0 mi NW 6.9 mph - N/A   Clear
11:53 PM 39.9 °F 35.1 °F 21.9 °F 49% 30.32 in 10.0 mi NNW 6.9 mph - N/A   Clear